Hourly Data Report for October 25, 2016

All times are specified in Local Standard Time (LST). Add 1 hour to adjust for Daylight Saving Time where and when it is observed.

ARVIAT A
NUNAVUT

61°05'38.000" N
94°04'18.000" W
10.40 m
2300427
71174
YEK

Download Data

Hourly Data (October 2016)
Hourly Data Report for October 25, 2016
Temp Definition
°C
Dew Point Temp Definition
°C
Rel Hum Definition
%
Wind Dir Definition
10's deg

Wind Spd Definition
km/h
Visibility Definition
km
Stn Press Definition
kPa
Hmdx Definition


Wind Chill Definition


Weather Definition


TIME
00:00 Legend Double Dagger 0.3 -1.6 87 20 9 16.1 103.33     LegendNANA
01:00 Legend Double Dagger 0.0 -1.4 90 23 5 16.1 103.32   -2 LegendNANA
02:00 Legend Double Dagger 0.4 -2.8 79 26 8 16.1 103.32     LegendNANA
03:00 Legend Double Dagger 0.3 -2.8 80 20 5 16.1 103.31     LegendNANA
04:00 Legend Double Dagger -0.1 -2.8 82 23 5 16.1 103.31   -2 LegendNANA
05:00 Legend Double Dagger -0.3 -2.1 88 18 8 16.1 103.30   -3 LegendNANA
06:00 Legend Double Dagger -0.3 -1.9 89 19 8 16.1 103.29   -3 LegendNANA
07:00 Legend Double Dagger -0.1 -1.9 88 20 8 16.1 103.28   -3 LegendNANA
08:00 Legend Double Dagger 0.0 -2.2 85 24 8 16.1 103.26   -3 LegendNANA
09:00 Legend Double Dagger 0.1 -2.1 85 22 13 16.1 103.24     LegendNANA
10:00 Legend Double Dagger -0.2 -1.2 93 21 9 16.1 103.22   -3 LegendNANA
11:00 Legend Double Dagger -0.1 -0.8 95 22 13 16.1 103.21   -4 LegendNANA
12:00 Legend Double Dagger 0.2 -0.5 95 21 15 16.1 103.16     LegendNANA
13:00 Legend Double Dagger 0.5 -0.5 93 23 18 16.1 103.14     LegendNANA
14:00 Legend Double Dagger 0.6 -1.3 87 24 21 16.1 103.12     LegendNANA
15:00 Legend Double Dagger 0.4 -0.9 91 24 22 16.1 103.09     Rain
16:00 Legend Double Dagger 0.0 -1.4 91 24 21 16.1 103.04   -5 Rain
17:00 Legend Double Dagger -0.2 -1.1 94 24 11 16.1 103.00   -4 LegendNANA
18:00 Legend Double Dagger -0.3 -0.7 97 23 11 16.1 103.01   -4 LegendNANA
19:00 Legend Double Dagger -0.5 -1.1 96 23 11 16.1 102.97   -4 LegendNANA
20:00 Legend Double Dagger -0.7 -0.7 100 21 9 16.1 102.91   -4 LegendNANA
21:00 Legend Double Dagger -0.7 -0.7 100 22 15 16.1 102.86   -5 LegendNANA
22:00 Legend Double Dagger -0.8 -0.8 100 23 13 16.1 102.85   -5 LegendNANA
23:00 Legend Double Dagger -0.8 -0.8 100 26 9 16.1 102.83   -4 LegendNANA

Notes on Data Quality.

Legend

  • E = Estimated
  • M = Missing
  • NA = Not Available
  • ‡ = Partner data that is not subject to review by the National Climate Archives
Date modified: